User: anonymous   Login
Location: ?
(35.6144°N, 139.6873°E)
Time: 07:19:19
(UTC+00:00)
Language:

Cosmos 1603 - Orbit

View from above orbital plane
View from above orbital plane
View from above satellite
View from above satellite

Ground track
Ground track

The orbit data is extracted from the following two-line orbital elements,

1 15333U 84106A   24202.05592619 -.00000215  00000-0 -87374-4 0  9994
2 15333  71.0266  68.5816 0021334 228.4619 131.4674 14.14340073 54404
Epoch (UTC): 20 July 2024 01:20:32
Eccentricity: 0.0021334
inclination: 71.0266°
perigee height: 829 km
apogee height: 860 km
right ascension of ascending node: 68.5816°
argument of perigee: 228.4619°
revolutions per day: 14.14340073
mean anomaly at epoch: 131.4674°
orbit number at epoch: 5440

The dashed part of the orbit path shows where the satellite is in the earth's shadow,  

DLR